Regional Weather Roundup
Issued by NWS

Home | Current Version | Previous Version | Graphics & Text | Print | Product List | Glossary On
Versions: 1 2 3 4 5 6 7 8 9 10 11 12 13 14 15 16 17 18 19 20 21 22 23 24 25 26 27 28 29 30 31 32 33 34 35 36 37 38 39 40 41 42 43 44 45 46 47 48 49 50
000
ASUS45 KCYS 312210
RWRWY

WYOMING REGIONAL WEATHER ROUNDUP
NATIONAL WEATHER SERVICE CHEYENNE WY
300 PM MST SAT JAN 31 2015

NOTE:  "FAIR" INDICATES FEW OR NO CLOUDS BELOW 12,000 FEET
WITH NO SIGNIFICANT WEATHER AND/OR OBSTRUCTIONS TO VISIBILITY.

WYZ001-312300-
YELLOWSTONE NATIONAL PARK

CITY           SKY/WX    TMP DP  RH WIND       PRES   REMARKS
LK YELLOWSTONE   N/A     30   9  41 W18G26    29.95S WCI  18
W YELLOWSTONE  NOT AVBL

$$
WYZ002>013-054>058-071-098>099-312300-
NORTHERN WYOMING

CITY           SKY/WX    TMP DP  RH WIND       PRES   REMARKS
JACKSON        SUNNY     21  16  79 SE5       29.99S WCI  15
CODY           FAIR      34  23  64 N23G31    29.95R WCI  22
GREYBULL       CLOUDY    29  28  96 S5        29.94R FOG     WCI  24
WORLAND        FAIR      31  26  82 N5        29.92R WCI  26
SHERIDAN       FLURRIES  30  22  72 NW30      30.02R WCI  15
BUFFALO        MIX PCPN  28  22  78 N30G43    29.92R WCI  12
GILLETTE       FAIR      38  23  55 N20       29.89R WCI  28
HULETT           N/A    N/A N/A N/A MISG        N/A
NEWCASTLE      FAIR      39  23  52 S8        29.87S WCI  34

$$
WYZ014>020-022>026-101>103-312300-
CENTRAL WYOMING

CITY           SKY/WX    TMP DP  RH WIND       PRES   REMARKS
BIG PINEY      FAIR      38  14  37 N21       29.93R WCI  28
PINEDALE       FAIR      32  14  47 NW20G25   29.93R WCI  20
DUBOIS         FAIR      36  -4  18 NW26G35   29.88R WCI  23
LANDER         FAIR      40  26  57 SE8       29.85F WCI  34
RIVERTON       FAIR      40  19  43 S3        29.88F
CASPER         FAIR      39  18  42 N12       29.87R WCI  32
DOUGLAS        FAIR      46  18  32 N14       29.82F

$$
WYZ021-027>030-104>119-312300-
SOUTHERN WYOMING

CITY           SKY/WX    TMP DP  RH WIND       PRES   REMARKS
EVANSTON       FAIR      40  27  59 SW14      29.98F WCI  32
KEMMERER       FAIR      36  23  60 NW15      29.96R WCI  26
FORT BRIDGER   FAIR      41  25  51 W20       30.00R
ROCK SPRINGS   FAIR      40  27  59 W24       29.90  WCI  29
DIXON          FAIR      40  26  59 SW5       29.91S
RAWLINS        CLOUDY    42  26  53 W22G30    29.85R
SARATOGA       CLOUDY    37  25  60 W13       29.86R WCI  29
LARAMIE        CLOUDY    36  26  67 CALM      29.79S
CHEYENNE       CLOUDY    39  27  62 E6        29.77S WCI  35
TORRINGTON     FAIR      41  25  53 NW5       29.84F
PINE BLUFFS    LGT SNOW  32  32 100 N7        29.80F WCI  26

$$


USA.gov is the U.S. government's official web portal to all federal, state and local government web resources and services.